WA6MHA-11 Weather Reports


Display with metric or nautical units.
time (UTC)temp
F
wind
direction
speed
MPH
gust
MPH
rain 1hr
in
rain 24hr
in
rain mn
in
humidity
%
barometer
mb
20180224122631 38 263 2.0 7.0 0.00 0.00 0.36 36 1028.0
20180224122600 38 263 2.0 7.0 0.00 0.00 0.36 36 1028.0
20180224122023 38 263 2.0 7.0 0.00 0.00 0.36 36 1028.0
20180224121958 38 283 3.0 3.0 0.00 0.00 0.36 36 1028.1
20180224121620 38 283 3.0 3.0 0.00 0.00 0.36 36 1028.1
20180224121224 37 319 1.0 4.0 0.00 0.00 0.36 36 1028.0
20180224121219 38 270 1.0 4.0 0.00 0.00 0.36 36 1028.0
20180224120818 37 319 1.0 4.0 0.00 0.00 0.36 36 1028.0
20180224120417 37 244 0.0 4.0 0.00 0.00 0.36 36 1028.0
20180224120016 37 236 3.0 5.0 0.00 0.00 0.36 36 1028.1
20180224120007 37 270 1.0 2.0 0.00 0.00 0.36 36 1028.0
20180224115930 37 270 1.0 2.0 0.00 0.00 0.36 36 1028.0
20180224115644 37 270 3.0 3.0 0.00 0.00 0.36 36 1027.9
20180224115614 37 270 1.0 2.0 0.00 0.00 0.36 36 1028.0
20180224115212 37 270 3.0 3.0 0.00 0.00 0.36 36 1027.9
20180224115155 37 290 1.0 3.0 0.00 0.00 0.36 36 1028.0
20180224114811 37 290 1.0 3.0 0.00 0.00 0.36 36 1028.0
20180224114558 36 247 2.0 6.0 0.00 0.00 0.36 36 1028.1
20180224114412 36 265 1.0 4.0 0.00 0.00 0.36 36 1028.1
20180224114410 36 265 1.0 4.0 0.00 0.00 0.36 36 1028.1
20180224114023 36 256 2.0 3.0 0.00 0.00 0.36 36 1028.0
20180224114009 36 247 2.0 6.0 0.00 0.00 0.36 36 1028.1
20180224113608 36 256 2.0 3.0 0.00 0.00 0.36 36 1028.0
20180224113539 36 227 2.0 3.0 0.00 0.00 0.36 36 1028.1
20180224113241 36 229 2.0 4.0 0.00 0.00 0.36 36 1028.1
20180224113207 36 227 2.0 3.0 0.00 0.00 0.36 36 1028.1
20180224112840 36 222 2.0 4.0 0.00 0.00 0.36 36 1028.0
20180224112804 36 229 2.0 4.0 0.00 0.00 0.36 36 1028.1
20180224112403 36 222 2.0 4.0 0.00 0.00 0.36 36 1028.0
20180224112335 36 247 2.0 3.0 0.00 0.00 0.36 36 1027.9
20180224112007 36 225 1.0 3.0 0.00 0.00 0.36 36 1028.0
20180224112002 36 247 2.0 3.0 0.00 0.00 0.36 36 1027.9
20180224111703 36 245 2.0 3.0 0.00 0.00 0.36 36 1028.0
20180224111601 36 225 1.0 3.0 0.00 0.00 0.36 36 1028.0
20180224111200 36 245 2.0 3.0 0.00 0.00 0.36 36 1028.0
20180224111153 35 267 2.0 4.0 0.00 0.00 0.36 36 1028.0
20180224111033 35 258 2.0 4.0 0.00 0.00 0.36 36 1028.1
20180224110758 35 267 2.0 4.0 0.00 0.00 0.36 36 1028.0
20180224110356 35 258 2.0 4.0 0.00 0.00 0.36 36 1028.1
20180224110320 35 270 2.0 2.0 0.00 0.00 0.36 36 1028.1
20180224105955 35 270 2.0 2.0 0.00 0.00 0.36 36 1028.1
20180224105911 35 270 0.0 2.0 0.00 0.00 0.36 35 1027.9
20180224105554 35 270 0.0 0.0 0.00 0.00 0.36 36 1027.9
20180224105153 35 270 0.0 2.0 0.00 0.00 0.36 35 1027.9
20180224105123 36 225 2.0 2.0 0.00 0.00 0.36 35 1027.8
20180224104752 36 225 2.0 2.0 0.00 0.00 0.36 35 1027.8
20180224104350 36 193 2.0 2.0 0.00 0.00 0.36 35 1027.8
20180224103833 37 254 1.0 1.0 0.00 0.00 0.36 35 1027.7
20180224103543 36 225 1.0 1.0 0.00 0.00 0.36 35 1027.8
20180224103140 37 270 1.0 1.0 0.00 0.00 0.36 35 1027.7
20180224102739 37 254 1.0 1.0 0.00 0.00 0.36 35 1027.7
20180224102338 37 335 0.0 3.0 0.00 0.00 0.36 35 1027.8
20180224101937 38 225 2.0 3.0 0.00 0.00 0.36 35 1027.8
20180224101535 38 180 3.0 3.0 0.00 0.00 0.36 35 1027.7
20180224101519 38 236 3.0 3.0 0.00 0.00 0.36 35 1027.7
20180224101133 38 236 3.0 3.0 0.00 0.00 0.36 35 1027.7
20180224101112 38 270 1.0 4.0 0.00 0.00 0.36 35 1027.6
20180224100751 38 270 1.0 2.0 0.00 0.00 0.36 35 1027.6
20180224100732 38 270 1.0 4.0 0.00 0.00 0.36 35 1027.6
20180224100715 38 270 1.0 2.0 0.00 0.00 0.36 35 1027.6
20180224100349 39 211 3.0 3.0 0.00 0.00 0.36 35 1027.6
20180224100331 38 270 1.0 2.0 0.00 0.00 0.36 35 1027.6
20180224095930 39 211 3.0 3.0 0.00 0.00 0.36 35 1027.6
20180224095643 39 210 0.0 2.0 0.00 0.00 0.36 35 1027.6
20180224095528 39 283 0.0 3.0 0.00 0.00 0.36 35 1027.6
20180224095126 39 210 0.0 2.0 0.00 0.00 0.36 35 1027.6
20180224095038 40 315 2.0 2.0 0.00 0.00 0.36 35 1027.6
20180224094725 40 315 2.0 2.0 0.00 0.00 0.36 35 1027.6
20180224094723 40 270 1.0 3.0 0.00 0.00 0.36 35 1027.7
20180224094324 40 270 1.0 3.0 0.00 0.00 0.36 35 1027.7
20180224094303 40 225 3.0 3.0 0.00 0.00 0.36 34 1027.7
20180224093923 40 225 3.0 3.0 0.00 0.00 0.36 34 1027.7
20180224093614 40 270 1.0 1.0 0.00 0.00 0.36 34 1027.7
20180224093522 40 270 3.0 3.0 0.00 0.00 0.36 34 1027.7
20180224093135 40 236 1.0 2.0 0.00 0.00 0.36 34 1027.6
20180224093121 40 270 1.0 1.0 0.00 0.00 0.36 34 1027.7
20180224092719 40 236 1.0 2.0 0.00 0.00 0.36 34 1027.6
20180224092619 40 254 0.0 2.0 0.00 0.00 0.36 34 1027.7
20180224092317 40 254 0.0 2.0 0.00 0.00 0.36 34 1027.7
20180224092220 40 254 0.0 3.0 0.00 0.00 0.36 34 1027.7
20180224091916 40 254 0.0 3.0 0.00 0.00 0.36 34 1027.7
20180224091834 40 231 2.0 5.0 0.00 0.00 0.36 34 1027.7
20180224091114 41 270 2.0 2.0 0.00 0.00 0.36 34 1027.7
20180224091044 41 247 2.0 3.0 0.00 0.00 0.36 34 1027.7
20180224090713 41 247 2.0 3.0 0.00 0.00 0.36 34 1027.7
20180224090607 41 231 2.0 6.0 0.00 0.00 0.36 34 1027.7
20180224090311 41 231 2.0 6.0 0.00 0.00 0.36 34 1027.7
20180224090300 41 267 3.0 5.0 0.00 0.00 0.36 34 1027.7
20180224085909 41 267 3.0 5.0 0.00 0.00 0.36 34 1027.7
20180224085539 41 211 3.0 6.0 0.00 0.00 0.36 34 1027.8
20180224085508 41 186 1.0 5.0 0.00 0.00 0.36 34 1027.8
20180224085107 41 211 3.0 6.0 0.00 0.00 0.36 34 1027.8
20180224085050 41 225 1.0 4.0 0.00 0.00 0.36 34 1027.8
20180224084706 41 225 1.0 4.0 0.00 0.00 0.36 34 1027.8
20180224084616 41 281 3.0 4.0 0.00 0.00 0.36 34 1027.8
20180224084307 41 281 3.0 4.0 0.00 0.00 0.36 34 1027.8
20180224084110 41 189 4.0 5.0 0.00 0.00 0.36 34 1027.7
20180224083903 41 189 4.0 5.0 0.00 0.00 0.36 34 1027.7
20180224083502 41 254 1.0 5.0 0.00 0.00 0.36 34 1027.8
20180224083432 42 231 3.0 6.0 0.00 0.00 0.36 34 1027.8
20180224083100 42 231 3.0 6.0 0.00 0.00 0.36 34 1027.8
20180224083019 42 247 3.0 6.0 0.00 0.00 0.36 34 1027.6
20180224082659 42 247 3.0 6.0 0.00 0.00 0.36 34 1027.6
20180224082258 42 261 3.0 6.0 0.00 0.00 0.36 34 1027.7
20180224082251 42 222 3.0 6.0 0.00 0.00 0.36 34 1027.7
20180224082218 42 222 3.0 6.0 0.00 0.00 0.36 34 1027.7
20180224081857 42 222 3.0 6.0 0.00 0.00 0.36 34 1027.7
20180224081825 42 204 4.0 5.0 0.00 0.00 0.36 34 1027.7
20180224081732 42 204 4.0 5.0 0.00 0.00 0.36 34 1027.7
20180224081455 42 204 4.0 5.0 0.00 0.00 0.36 34 1027.7
20180224081410 42 267 6.0 7.0 0.00 0.00 0.36 34 1027.7
20180224081054 42 267 6.0 7.0 0.00 0.00 0.36 34 1027.7
20180224081027 43 275 0.0 7.0 0.00 0.00 0.36 34 1027.7
20180224080701 43 275 0.0 7.0 0.00 0.00 0.36 34 1027.7
20180224080653 43 275 0.0 7.0 0.00 0.00 0.36 34 1027.7
20180224080615 43 231 4.0 7.0 0.00 0.00 0.36 34 1027.5
20180224080311 43 243 1.0 4.0 0.00 0.00 0.36 34 1027.5
20180224080252 43 231 4.0 7.0 0.00 0.00 0.36 34 1027.5
20180224075850 43 243 1.0 4.0 0.00 0.00 0.36 34 1027.5
20180224075818 43 306 0.0 7.0 0.00 0.00 0.36 34 1027.6
20180224075739 43 306 0.0 7.0 0.00 0.00 0.36 34 1027.6
20180224075541 44 265 2.0 6.0 0.00 0.00 0.36 35 1027.5
20180224075449 43 306 0.0 7.0 0.00 0.00 0.36 34 1027.6
20180224075047 44 265 2.0 6.0 0.00 0.00 0.36 35 1027.5
20180224074948 44 306 3.0 7.0 0.00 0.00 0.36 35 1027.5
20180224074646 44 306 3.0 7.0 0.00 0.00 0.36 35 1027.5
20180224074608 44 315 4.0 10.0 0.00 0.00 0.36 35 1027.4
20180224074248 44 326 7.0 10.0 0.00 0.00 0.36 35 1027.4
20180224074245 44 315 4.0 10.0 0.00 0.00 0.36 35 1027.4
20180224073858 44 333 8.0 13.0 0.00 0.00 0.36 35 1027.4
20180224073844 44 326 7.0 10.0 0.00 0.00 0.36 35 1027.4
20180224073718 43 335 5.0 11.0 0.00 0.00 0.36 35 1027.5
20180224073442 44 333 8.0 13.0 0.00 0.00 0.36 35 1027.4
20180224073429 43 335 5.0 11.0 0.00 0.00 0.36 35 1027.5
20180224073042 43 310 7.0 9.0 0.00 0.00 0.36 35 1027.5
20180224072644 44 326 7.0 10.0 0.00 0.00 0.36 35 1027.4
20180224072639 43 310 7.0 9.0 0.00 0.00 0.36 35 1027.5
20180224072238 44 326 7.0 10.0 0.00 0.00 0.36 35 1027.4
20180224072151 43 321 5.0 8.0 0.00 0.00 0.36 34 1027.5
20180224071954 43 308 3.0 8.0 0.00 0.00 0.36 34 1027.6
20180224071839 43 308 3.0 8.0 0.00 0.00 0.36 34 1027.6
20180224071837 43 321 5.0 8.0 0.00 0.00 0.36 34 1027.5
20180224071728 43 315 3.0 6.0 0.00 0.00 0.36 34 1027.6
20180224071436 43 308 3.0 8.0 0.00 0.00 0.36 34 1027.6
20180224071034 43 315 3.0 6.0 0.00 0.00 0.36 34 1027.6
20180224070621 43 330 4.0 6.0 0.00 0.00 0.36 34 1027.5
20180224070231 43 330 4.0 6.0 0.00 0.00 0.36 34 1027.5
20180224070223 43 299 4.0 6.0 0.00 0.00 0.36 34 1027.5
20180224065833 43 299 4.0 6.0 0.00 0.00 0.36 34 1027.5
20180224065830 43 299 4.0 6.0 0.00 0.00 0.36 34 1027.5
20180224065717 43 326 4.0 7.0 0.00 0.00 0.36 34 1027.5
20180224065641 43 326 4.0 7.0 0.00 0.00 0.36 34 1027.5
20180224065429 43 324 3.0 5.0 0.00 0.00 0.36 34 1027.5
20180224065028 43 326 4.0 7.0 0.00 0.00 0.36 34 1027.5
20180224064725 43 310 2.0 7.0 0.00 0.00 0.36 34 1027.4
20180224064626 43 297 6.0 8.0 0.00 0.00 0.36 34 1027.4
20180224064225 43 310 2.0 7.0 0.00 0.00 0.36 34 1027.4
20180224064116 43 324 3.0 5.0 0.00 0.00 0.36 34 1027.5
20180224063824 43 324 3.0 5.0 0.00 0.00 0.36 34 1027.5
20180224063805 43 326 4.0 7.0 0.00 0.00 0.36 34 1027.3
20180224063422 43 326 4.0 7.0 0.00 0.00 0.36 34 1027.3
20180224063021 43 319 3.0 6.0 0.00 0.00 0.36 34 1027.4
20180224062853 42 333 2.0 5.0 0.00 0.00 0.36 34 1027.4
20180224062620 42 333 2.0 5.0 0.00 0.00 0.36 34 1027.4
20180224062528 42 321 3.0 5.0 0.00 0.00 0.36 34 1027.5
20180224062219 42 321 3.0 5.0 0.00 0.00 0.36 34 1027.5
20180224062121 42 308 5.0 5.0 0.00 0.00 0.36 34 1027.5
20180224061822 42 308 5.0 5.0 0.00 0.00 0.36 34 1027.5
20180224061719 43 321 4.0 6.0 0.00 0.00 0.36 34 1027.4
20180224061417 43 321 4.0 6.0 0.00 0.00 0.36 34 1027.4
20180224061415 43 321 4.0 6.0 0.00 0.00 0.36 34 1027.4
20180224061407 43 294 3.0 6.0 0.00 0.00 0.36 34 1027.4
20180224061014 43 294 3.0 6.0 0.00 0.00 0.36 34 1027.4
20180224060935 43 297 4.0 6.0 0.00 0.00 0.36 34 1027.3
20180224060725 43 321 4.0 10.0 0.00 0.00 0.36 34 1027.4
20180224060613 43 297 4.0 6.0 0.00 0.00 0.36 34 1027.3
20180224060527 43 321 4.0 10.0 0.00 0.00 0.36 34 1027.4
20180224060213 43 321 4.0 10.0 0.00 0.00 0.36 34 1027.4
20180224060104 43 330 6.0 9.0 0.00 0.00 0.36 34 1027.3
20180224055817 43 330 6.0 9.0 0.00 0.00 0.36 34 1027.3
20180224055812 43 330 6.0 9.0 0.00 0.00 0.36 34 1027.3
20180224055643 43 317 8.0 9.0 0.00 0.00 0.36 34 1027.3
20180224055429 43 321 7.0 9.0 0.00 0.00 0.36 34 1027.3
20180224055409 43 317 8.0 9.0 0.00 0.00 0.36 34 1027.3
20180224055007 43 321 7.0 9.0 0.00 0.00 0.36 34 1027.3
20180224054843 42 317 5.0 7.0 0.00 0.00 0.36 34 1027.5
20180224054610 42 317 5.0 7.0 0.00 0.00 0.36 34 1027.5
20180224054606 42 317 5.0 7.0 0.00 0.00 0.36 34 1027.5
20180224054525 42 315 3.0 6.0 0.00 0.00 0.36 34 1027.6
20180224054205 42 315 3.0 6.0 0.00 0.00 0.36 34 1027.6
20180224054116 41 315 3.0 6.0 0.00 0.00 0.36 33 1027.6
20180224053806 41 315 3.0 6.0 0.00 0.00 0.36 33 1027.6
20180224053804 41 315 3.0 6.0 0.00 0.00 0.36 33 1027.6
20180224053709 41 290 4.0 6.0 0.00 0.00 0.36 33 1027.6
20180224053410 41 290 4.0 6.0 0.00 0.00 0.36 33 1027.6
20180224053403 41 290 4.0 6.0 0.00 0.00 0.36 33 1027.6
20180224053333 41 270 4.0 4.0 0.00 0.00 0.36 33 1027.5
20180224053004 41 297 4.0 5.0 0.00 0.00 0.36 33 1027.6
20180224053002 41 297 4.0 5.0 0.00 0.00 0.36 33 1027.6
20180224052602 41 270 4.0 4.0 0.00 0.00 0.36 33 1027.5
20180224052559 41 270 4.0 4.0 0.00 0.00 0.36 33 1027.5
20180224052201 41 270 4.0 4.0 0.00 0.00 0.36 33 1027.6
20180224052159 41 270 4.0 4.0 0.00 0.00 0.36 33 1027.6
20180224052052 41 265 3.0 3.0 0.00 0.00 0.36 33 1027.5
20180224051829 41 274 1.0 1.0 0.00 0.00 0.36 33 1027.6
20180224051758 41 265 3.0 3.0 0.00 0.00 0.36 33 1027.5
20180224051707 41 274 1.0 1.0 0.00 0.00 0.36 33 1027.6
20180224051400 41 274 1.0 1.0 0.00 0.00 0.36 33 1027.6
20180224051356 41 274 1.0 1.0 0.00 0.00 0.36 33 1027.6
20180224051317 41 306 1.0 3.0 0.00 0.00 0.36 33 1027.5
20180224050955 41 306 1.0 3.0 0.00 0.00 0.36 33 1027.5
20180224050812 41 279 2.0 3.0 0.00 0.00 0.36 32 1027.3
20180224050554 41 315 2.0 3.0 0.00 0.00 0.36 32 1027.4
20180224050238 42 281 2.0 3.0 0.00 0.00 0.36 32 1027.5
20180224050152 41 279 2.0 3.0 0.00 0.00 0.36 32 1027.3
20180224050135 42 281 2.0 3.0 0.00 0.00 0.36 32 1027.5
20180224045758 42 281 2.0 3.0 0.00 0.00 0.36 32 1027.5
20180224045751 42 281 2.0 3.0 0.00 0.00 0.36 32 1027.5
20180224045650 42 270 3.0 3.0 0.00 0.00 0.36 32 1027.4
20180224045350 42 270 3.0 3.0 0.00 0.00 0.36 32 1027.4
20180224045331 42 238 2.0 3.0 0.00 0.00 0.36 32 1027.4
20180224044948 42 238 2.0 3.0 0.00 0.00 0.36 32 1027.4
20180224044917 42 213 1.0 3.0 0.00 0.00 0.36 32 1027.4
20180224044548 42 213 1.0 3.0 0.00 0.00 0.36 32 1027.4
20180224044533 42 211 1.0 4.0 0.00 0.00 0.36 32 1027.4
20180224044147 42 211 1.0 4.0 0.00 0.00 0.36 32 1027.4
20180224044038 43 225 2.0 3.0 0.00 0.00 0.36 32 1027.3
20180224043744 43 225 2.0 3.0 0.00 0.00 0.36 32 1027.3
20180224043714 43 199 1.0 3.0 0.00 0.00 0.36 32 1027.4
20180224043601 43 199 1.0 3.0 0.00 0.00 0.36 32 1027.4
20180224043343 43 199 1.0 3.0 0.00 0.00 0.36 32 1027.4
20180224043311 44 236 0.0 2.0 0.00 0.00 0.36 31 1027.3
20180224042941 44 236 0.0 2.0 0.00 0.00 0.36 31 1027.3
20180224042915 44 315 0.0 1.0 0.00 0.00 0.36 31 1027.2
20180224042540 44 315 0.0 1.0 0.00 0.00 0.36 31 1027.2
20180224042509 44 288 0.0 4.0 0.00 0.00 0.36 31 1027.2
20180224042308 44 315 2.0 5.0 0.00 0.00 0.36 31 1027.1
20180224042139 44 288 0.0 4.0 0.00 0.00 0.36 31 1027.2
20180224042011 44 315 2.0 5.0 0.00 0.00 0.36 31 1027.1
20180224041738 44 315 2.0 5.0 0.00 0.00 0.36 31 1027.1
20180224041626 44 330 6.0 7.0 0.00 0.00 0.36 31 1026.8
20180224041336 44 330 6.0 7.0 0.00 0.00 0.36 31 1026.8
20180224040935 45 337 7.0 7.0 0.00 0.00 0.36 31 1026.7
20180224040823 45 321 4.0 8.0 0.00 0.00 0.36 31 1026.7
20180224040534 45 321 4.0 8.0 0.00 0.00 0.36 31 1026.7
20180224040515 45 310 6.0 7.0 0.00 0.00 0.36 31 1026.8
20180224040132 45 310 6.0 7.0 0.00 0.00 0.36 31 1026.8
20180224035959 45 310 3.0 6.0 0.00 0.00 0.36 31 1026.8
20180224035731 45 310 3.0 6.0 0.00 0.00 0.36 31 1026.8
20180224035640 45 321 3.0 5.0 0.00 0.00 0.36 31 1026.9
20180224035330 45 321 3.0 5.0 0.00 0.00 0.36 31 1026.9
20180224035232 45 299 3.0 7.0 0.00 0.00 0.36 30 1026.8
20180224034928 45 299 3.0 7.0 0.00 0.00 0.36 30 1026.8
20180224034527 45 337 5.0 9.0 0.00 0.00 0.36 30 1026.6
20180224034158 45 328 6.0 9.0 0.00 0.00 0.36 30 1026.4
20180224034126 46 324 3.0 10.0 0.00 0.00 0.36 30 1026.5
20180224033724 45 328 6.0 9.0 0.00 0.00 0.36 30 1026.4
20180224033323 45 321 5.0 8.0 0.00 0.00 0.36 30 1026.3
20180224033316 46 306 6.0 7.0 0.00 0.00 0.36 30 1026.2
20180224032931 46 306 6.0 7.0 0.00 0.00 0.36 30 1026.2
20180224032928 46 306 6.0 7.0 0.00 0.00 0.36 30 1026.2
20180224032520 46 310 4.0 6.0 0.00 0.00 0.36 30 1026.4
20180224032427 46 330 5.0 12.0 0.00 0.00 0.36 29 1026.4
20180224032119 46 330 5.0 12.0 0.00 0.00 0.36 29 1026.4
20180224031718 46 0 12.0 12.0 0.00 0.00 0.36 29 1026.3
20180224031655 46 330 6.0 6.0 0.00 0.00 0.36 29 1026.4
20180224031620 46 353 3.0 7.0 0.00 0.00 0.36 29 1026.2
20180224031316 46 330 6.0 6.0 0.00 0.00 0.36 29 1026.4
20180224030915 46 353 3.0 7.0 0.00 0.00 0.36 29 1026.2
20180224030426 46 351 1.0 4.0 0.00 0.00 0.36 29 1026.2
20180224030112 46 351 1.0 4.0 0.00 0.00 0.36 29 1026.2
20180224030021 46 312 2.0 4.0 0.00 0.00 0.36 28 1026.1
20180224025711 46 312 2.0 4.0 0.00 0.00 0.36 28 1026.1
20180224025703 46 306 4.0 4.0 0.00 0.00 0.36 28 1026.1
20180224025320 46 18 0.0 5.0 0.00 0.00 0.36 28 1026.0
20180224025310 46 306 4.0 4.0 0.00 0.00 0.36 28 1026.1
20180224024909 46 18 0.0 5.0 0.00 0.00 0.36 28 1026.0
20180224024803 47 0 3.0 4.0 0.00 0.00 0.36 28 1025.9
20180224024511 47 18 1.0 6.0 0.00 0.00 0.36 28 1025.8
20180224024507 47 0 3.0 4.0 0.00 0.00 0.36 28 1025.9
20180224024106 47 18 1.0 6.0 0.00 0.00 0.36 28 1025.8
20180224024027 47 315 4.0 11.0 0.00 0.00 0.36 28 1025.7
20180224023704 47 315 4.0 11.0 0.00 0.00 0.36 28 1025.7
20180224023642 47 330 5.0 13.0 0.00 0.00 0.36 27 1025.5
20180224023448 47 337 4.0 9.0 0.00 0.00 0.36 27 1025.4
20180224023303 47 330 5.0 13.0 0.00 0.00 0.36 27 1025.5
20180224023233 47 337 4.0 9.0 0.00 0.00 0.36 27 1025.4
20180224022902 47 337 4.0 9.0 0.00 0.00 0.36 27 1025.4
20180224022756 47 337 6.0 12.0 0.00 0.00 0.36 27 1025.5
20180224022501 47 337 6.0 12.0 0.00 0.00 0.36 27 1025.5
20180224022103 47 317 6.0 9.0 0.00 0.00 0.36 27 1025.3
20180224022059 47 2 8.0 10.0 0.00 0.00 0.36 27 1025.4
20180224021658 47 317 6.0 9.0 0.00 0.00 0.36 27 1025.3
20180224021606 47 330 4.0 13.0 0.00 0.00 0.36 26 1025.3
20180224021256 47 330 4.0 13.0 0.00 0.00 0.36 26 1025.3
20180224021110 48 321 7.0 14.0 0.00 0.00 0.36 26 1025.3
20180224020855 48 321 7.0 14.0 0.00 0.00 0.36 26 1025.3
20180224020454 48 306 8.0 16.0 0.00 0.00 0.36 26 1025.2
20180224020053 48 335 11.0 17.0 0.00 0.00 0.36 26 1025.0
20180224015932 48 344 7.0 14.0 0.00 0.00 0.36 26 1024.9
20180224015652 48 344 7.0 14.0 0.00 0.00 0.36 26 1024.9
20180224015637 48 346 14.0 16.0 0.00 0.00 0.36 26 1024.7
20180224015251 48 346 14.0 16.0 0.00 0.00 0.36 26 1024.7
20180224015149 48 335 7.0 18.0 0.00 0.00 0.36 25 1024.6
20180224015000 48 337 8.0 17.0 0.00 0.00 0.36 25 1024.5
20180224014848 48 335 7.0 18.0 0.00 0.00 0.36 25 1024.6
20180224014447 48 337 8.0 17.0 0.00 0.00 0.36 25 1024.5
20180224014406 49 332 5.0 17.0 0.00 0.00 0.36 25 1024.4
20180224014046 49 332 5.0 17.0 0.00 0.00 0.36 25 1024.4
20180224013959 49 321 17.0 17.0 0.00 0.00 0.36 25 1024.3
20180224013645 49 321 17.0 17.0 0.00 0.00 0.36 25 1024.3
20180224013529 49 319 16.0 21.0 0.00 0.00 0.36 25 1024.4
20180224013244 49 319 16.0 21.0 0.00 0.00 0.36 25 1024.4
20180224012842 49 317 17.0 19.0 0.00 0.00 0.36 25 1024.4
20180224012737 49 333 9.0 22.0 0.00 0.00 0.36 25 1024.3
20180224012440 49 333 9.0 22.0 0.00 0.00 0.36 25 1024.3
20180224012323 49 339 8.0 19.0 0.00 0.00 0.36 25 1024.4
20180224012039 49 339 8.0 19.0 0.00 0.00 0.36 25 1024.4
20180224011940 49 321 12.0 20.0 0.00 0.00 0.36 25 1024.4
20180224011638 49 321 12.0 20.0 0.00 0.00 0.36 25 1024.4
20180224011526 49 315 11.0 16.0 0.00 0.00 0.36 25 1024.5
20180224011237 49 315 11.0 16.0 0.00 0.00 0.36 25 1024.5
20180224011120 49 312 10.0 18.0 0.00 0.00 0.36 25 1024.4
20180224010836 49 312 10.0 18.0 0.00 0.00 0.36 25 1024.4
20180224010653 49 333 14.0 17.0 0.00 0.00 0.36 24 1024.6
20180224010442 49 333 14.0 17.0 0.00 0.00 0.36 24 1024.6
20180224010329 49 332 8.0 18.0 0.00 0.00 0.36 24 1024.6
20180224010033 49 332 8.0 18.0 0.00 0.00 0.36 24 1024.6
20180224005857 49 339 13.0 22.0 0.00 0.00 0.36 24 1024.5
20180224005631 49 339 13.0 22.0 0.00 0.00 0.36 24 1024.5
20180224005527 49 319 15.0 15.0 0.00 0.00 0.35 24 1024.5
20180224005230 49 319 15.0 15.0 0.00 0.00 0.35 24 1024.5
20180224004730 49 326 11.0 16.0 0.00 0.00 0.35 24 1024.7
20180224004422 49 326 11.0 16.0 0.00 0.00 0.35 24 1024.7
20180224004326 49 0 20.0 20.0 0.00 0.00 0.35 24 1024.6
20180224004022 49 0 20.0 20.0 0.00 0.00 0.35 24 1024.6
20180224003826 49 337 19.0 19.0 0.00 0.00 0.35 24 1024.4
20180224003619 49 337 19.0 19.0 0.00 0.00 0.35 24 1024.4
20180224003218 49 337 8.0 16.0 0.00 0.00 0.35 24 1024.6
20180224002816 49 310 19.0 21.0 0.00 0.00 0.35 24 1024.7
20180224002708 49 351 22.0 23.0 0.00 0.00 0.35 24 1024.6
20180224002415 49 351 22.0 23.0 0.00 0.00 0.35 24 1024.6
20180224002014 50 324 11.0 23.0 0.00 0.00 0.35 24 1024.8
20180224001446 50 342 14.0 29.0 0.00 0.00 0.33 24 1024.8
20180224001211 50 342 14.0 29.0 0.00 0.00 0.33 24 1024.8
20180224001055 50 346 23.0 28.0 0.00 0.00 0.28 24 1024.5
20180224000810 50 346 23.0 28.0 0.00 0.00 0.28 24 1024.5
20180224000638 50 344 22.0 28.0 0.00 0.00 0.26 24 1024.5
20180224000410 50 344 22.0 28.0 0.00 0.00 0.26 24 1024.5
20180224000255 51 2 27.0 28.0 0.00 0.00 0.26 24 1024.5
20180224000007 51 2 27.0 28.0 0.00 0.00 0.26 24 1024.5
20180223235908 51 0 16.0 26.0 0.00 0.00 0.26 24 1024.5
20180223235606 51 0 16.0 26.0 0.00 0.00 0.26 24 1024.5
20180223235457 51 344 20.0 29.0 0.00 0.00 0.26 25 1024.3
20180223235205 51 344 20.0 29.0 0.00 0.00 0.26 25 1024.3
20180223235044 51 357 16.0 23.0 0.00 0.00 0.26 25 1024.0
20180223234803 51 357 16.0 23.0 0.00 0.00 0.26 25 1024.0
20180223234731 51 0 20.0 28.0 0.00 0.00 0.26 24 1023.9
20180223234402 51 0 20.0 28.0 0.00 0.00 0.26 24 1023.9
20180223234248 51 357 23.0 31.0 0.00 0.00 0.26 25 1023.7
20180223234000 51 357 23.0 31.0 0.00 0.00 0.26 25 1023.7
20180223233935 52 0 31.0 31.0 0.00 0.00 0.26 25 1023.6
20180223233559 52 0 31.0 31.0 0.00 0.00 0.26 25 1023.6
20180223233521 51 6 30.0 30.0 0.00 0.00 0.25 25 1023.3
20180223233158 51 6 30.0 30.0 0.00 0.00 0.25 25 1023.3
20180223233027 52 2 24.0 28.0 0.00 0.00 0.24 25 1023.5
20180223232757 52 2 24.0 28.0 0.00 0.00 0.24 25 1023.5
20180223232631 52 0 19.0 26.0 0.00 0.00 0.24 25 1023.6
20180223232357 52 0 19.0 26.0 0.00 0.00 0.24 25 1023.6
20180223232355 52 0 19.0 26.0 0.00 0.00 0.24 25 1023.6
20180223232303 52 355 14.0 24.0 0.00 0.00 0.24 25 1023.5
20180223231957 52 355 14.0 24.0 0.00 0.00 0.24 25 1023.5
20180223231954 52 355 14.0 24.0 0.00 0.00 0.24 25 1023.5
20180223231852 52 348 16.0 21.0 0.00 0.00 0.23 25 1023.5
20180223231818 52 348 16.0 21.0 0.00 0.00 0.23 25 1023.5
20180223231606 52 348 16.0 21.0 0.00 0.00 0.23 25 1023.5
20180223231555 52 348 16.0 21.0 0.00 0.00 0.23 25 1023.5
20180223231553 52 348 16.0 21.0 0.00 0.00 0.23 25 1023.5
20180223231430 53 346 18.0 21.0 0.00 0.00 0.23 25 1023.6
20180223231152 53 346 18.0 21.0 0.00 0.00 0.23 25 1023.6
20180223231041 52 328 17.0 22.0 0.00 0.00 0.23 24 1023.5
20180223230750 52 328 17.0 22.0 0.00 0.00 0.23 24 1023.5
20180223230334 52 0 25.0 25.0 0.00 0.00 0.23 24 1023.4
20180223225940 52 0 25.0 25.0 0.00 0.00 0.23 24 1023.4
20180223225539 53 351 16.0 25.0 0.00 0.00 0.23 24 1023.6
20180223225520 52 0 25.0 30.0 0.00 0.00 0.20 24 1023.3
20180223225138 52 0 25.0 30.0 0.00 0.00 0.20 24 1023.3
20180223225004 53 0 24.0 30.0 0.00 0.00 0.15 25 1023.3
20180223224737 53 0 24.0 30.0 0.00 0.00 0.15 25 1023.3
20180223224335 52 353 21.0 32.0 0.00 0.00 0.09 24 1023.5
20180223223805 53 4 18.0 25.0 0.00 0.00 0.06 25 1023.4
20180223223532 53 4 18.0 25.0 0.00 0.00 0.06 25 1023.4
20180223223408 54 357 18.0 22.0 0.00 0.00 0.06 25 1023.4
20180223223134 54 357 18.0 22.0 0.00 0.00 0.06 25 1023.4
20180223223131 54 357 18.0 22.0 0.00 0.00 0.06 25 1023.4
20180223223040 54 11 12.0 24.0 0.00 0.00 0.06 25 1023.5
20180223222733 54 11 12.0 24.0 0.00 0.00 0.06 25 1023.5
20180223222730 54 11 12.0 24.0 0.00 0.00 0.06 25 1023.5
20180223222604 53 11 16.0 25.0 0.00 0.00 0.04 25 1023.4
20180223222329 53 11 16.0 25.0 0.00 0.00 0.04 25 1023.4
20180223222227 54 0 20.0 24.0 0.00 0.00 0.04 25 1023.4
20180223221928 54 0 20.0 24.0 0.00 0.00 0.04 25 1023.4
20180223221738 53 9 21.0 28.0 0.00 0.00 0.04 26 1023.2
20180223221526 53 9 21.0 28.0 0.00 0.00 0.04 26 1023.2
20180223221422 53 346 14.0 23.0 0.00 0.00 0.04 26 1023.4
20180223221124 53 346 14.0 23.0 0.00 0.00 0.04 26 1023.4
20180223220950 54 350 8.0 22.0 0.00 0.00 0.03 26 1023.5
20180223220723 54 350 8.0 22.0 0.00 0.00 0.03 26 1023.5
20180223220329 54 357 17.0 20.0 0.00 0.00 0.03 26 1023.4
20180223220322 54 357 17.0 20.0 0.00 0.00 0.03 26 1023.4
20180223220206 54 4 15.0 23.0 0.00 0.00 0.03 26 1023.6
20180223215921 54 4 15.0 23.0 0.00 0.00 0.03 26 1023.6
20180223215710 54 0 15.0 23.0 0.00 0.00 0.03 26 1023.5
20180223215522 54 0 15.0 23.0 0.00 0.00 0.03 26 1023.5
20180223215520 54 0 15.0 23.0 0.00 0.00 0.03 26 1023.5
20180223215404 54 6 18.0 22.0 0.00 0.00 0.03 26 1023.6
20180223215120 54 6 18.0 22.0 0.00 0.00 0.03 26 1023.6
20180223214720 55 351 13.0 20.0 0.00 0.00 0.03 26 1023.8
20180223214716 55 351 13.0 20.0 0.00 0.00 0.03 26 1023.8
20180223214616 53 353 18.0 22.0 0.00 0.00 0.03 26 1023.7
20180223214319 53 353 18.0 22.0 0.00 0.00 0.03 26 1023.7
20180223214315 53 353 18.0 22.0 0.00 0.00 0.03 26 1023.7
20180223214154 54 330 16.0 21.0 0.00 0.00 0.03 27 1023.9
20180223213914 54 330 16.0 21.0 0.00 0.00 0.03 27 1023.9
20180223213749 53 351 15.0 22.0 0.00 0.00 0.03 27 1023.9
20180223213517 53 351 15.0 22.0 0.00 0.00 0.03 27 1023.9
20180223213513 53 351 15.0 22.0 0.00 0.00 0.03 27 1023.9
20180223213418 53 0 22.0 22.0 0.00 0.00 0.03 27 1023.9
20180223213112 53 0 22.0 22.0 0.00 0.00 0.03 27 1023.9
20180223212941 53 342 15.0 21.0 0.00 0.00 0.03 27 1023.9
20180223212711 53 342 15.0 21.0 0.00 0.00 0.03 27 1023.9
20180223212602 53 321 12.0 18.0 0.00 0.00 0.03 27 1023.9
20180223212308 53 321 12.0 18.0 0.00 0.00 0.03 27 1023.9
20180223212212 54 0 13.0 19.0 0.00 0.00 0.03 27 1024.0
20180223211907 54 0 13.0 19.0 0.00 0.00 0.03 27 1024.0
20180223211802 54 0 14.0 17.0 0.00 0.00 0.03 27 1024.0
20180223211506 54 0 14.0 17.0 0.00 0.00 0.03 27 1024.0
20180223211351 54 0 21.0 22.0 0.00 0.00 0.03 27 1023.7
20180223211109 54 0 21.0 22.0 0.00 0.00 0.03 27 1023.7
20180223211105 54 0 21.0 22.0 0.00 0.00 0.03 27 1023.7
20180223210927 54 6 20.0 22.0 0.00 0.00 0.03 27 1023.8
20180223210704 54 6 20.0 22.0 0.00 0.00 0.03 27 1023.8
20180223210303 53 342 13.0 16.0 0.00 0.00 0.03 27 1024.0
20180223210140 53 348 13.0 25.0 0.00 0.00 0.03 27 1024.1
20180223205904 53 348 13.0 25.0 0.00 0.00 0.03 27 1024.1
20180223205900 53 348 13.0 25.0 0.00 0.00 0.03 27 1024.1
20180223205740 53 0 25.0 25.0 0.00 0.00 0.03 28 1023.8
20180223205459 53 0 25.0 25.0 0.00 0.00 0.03 28 1023.8
20180223205351 52 0 19.0 21.0 0.00 0.00 0.03 28 1024.1
20180223205101 52 0 19.0 21.0 0.00 0.00 0.03 28 1024.1
20180223205058 52 0 19.0 21.0 0.00 0.00 0.03 28 1024.1
20180223204942 53 353 14.0 18.0 0.00 0.00 0.03 28 1024.1
20180223204700 53 353 14.0 18.0 0.00 0.00 0.03 28 1024.1
20180223204657 53 353 14.0 18.0 0.00 0.00 0.03 28 1024.1
20180223204520 53 353 14.0 19.0 0.00 0.00 0.03 29 1024.1
20180223204325 53 348 18.0 18.0 0.00 0.00 0.03 29 1024.0
20180223204256 53 353 14.0 19.0 0.00 0.00 0.03 29 1024.1
20180223203857 53 348 18.0 18.0 0.00 0.00 0.03 29 1024.0
20180223203855 53 348 18.0 18.0 0.00 0.00 0.03 29 1024.0
20180223203753 52 0 15.0 18.0 0.00 0.00 0.03 29 1024.2
20180223203453 52 0 15.0 18.0 0.00 0.00 0.03 29 1024.2
20180223203052 52 337 15.0 18.0 0.00 0.00 0.03 29 1024.2
20180223202935 52 355 20.0 22.0 0.00 0.00 0.03 29 1024.2
20180223202653 52 355 20.0 22.0 0.00 0.00 0.03 29 1024.2
20180223202650 52 355 20.0 22.0 0.00 0.00 0.03 29 1024.2
20180223202249 51 328 10.0 16.0 0.00 0.00 0.03 30 1024.4
20180223202129 52 328 12.0 22.0 0.00 0.00 0.03 30 1024.3
20180223201851 52 328 12.0 22.0 0.00 0.00 0.03 30 1024.3
20180223201848 52 328 12.0 22.0 0.00 0.00 0.03 30 1024.3
20180223201711 52 22 19.0 21.0 0.00 0.00 0.02 30 1024.1
20180223201449 52 22 19.0 21.0 0.00 0.00 0.02 30 1024.1
20180223201447 52 22 19.0 21.0 0.00 0.00 0.02 30 1024.1
20180223201337 52 306 9.0 16.0 0.00 0.00 0.02 30 1024.6
20180223201048 52 306 9.0 16.0 0.00 0.00 0.02 30 1024.6
20180223201045 52 306 9.0 16.0 0.00 0.00 0.02 30 1024.6
20180223200720 51 346 12.0 17.0 0.00 0.00 0.02 30 1024.5
20180223200644 52 319 7.0 14.0 0.00 0.00 0.02 30 1024.6
20180223200503 51 346 12.0 17.0 0.00 0.00 0.02 30 1024.5
20180223200245 51 346 12.0 17.0 0.00 0.00 0.02 30 1024.5
20180223200243 51 346 12.0 17.0 0.00 0.00 0.02 30 1024.5
20180223200119 51 348 11.0 18.0 0.00 0.00 0.02 30 1024.8
20180223195841 51 348 11.0 18.0 0.00 0.00 0.02 30 1024.8
20180223195635 52 315 11.0 16.0 0.00 0.00 0.02 30 1024.9
20180223195443 52 315 11.0 16.0 0.00 0.00 0.02 30 1024.9
20180223195440 52 315 11.0 16.0 0.00 0.00 0.02 30 1024.9
20180223195254 52 319 8.0 17.0 0.00 0.00 0.02 31 1024.9
20180223195041 52 319 8.0 17.0 0.00 0.00 0.02 31 1024.9
20180223195039 52 319 8.0 17.0 0.00 0.00 0.02 31 1024.9
20180223194911 52 310 13.0 17.0 0.00 0.00 0.02 31 1024.7
20180223194655 52 344 13.0 20.0 0.00 0.00 0.02 31 1024.7
20180223194637 52 310 13.0 17.0 0.00 0.00 0.02 31 1024.7
20180223194503 52 344 13.0 20.0 0.00 0.00 0.02 31 1024.7
20180223194236 52 344 13.0 20.0 0.00 0.00 0.02 31 1024.7
20180223194044 52 353 13.0 14.0 0.00 0.00 0.02 31 1024.7
20180223193842 52 353 13.0 14.0 0.00 0.00 0.02 31 1024.7
20180223193838 52 353 13.0 14.0 0.00 0.00 0.02 31 1024.7
20180223193835 52 353 13.0 14.0 0.00 0.00 0.02 31 1024.7
20180223193724 52 322 14.0 17.0 0.00 0.00 0.02 31 1024.7
20180223193433 52 322 14.0 17.0 0.00 0.00 0.02 31 1024.7
20180223193301 51 297 8.0 16.0 0.00 0.00 0.02 31 1024.9
20180223193035 51 297 8.0 16.0 0.00 0.00 0.02 31 1024.9
20180223193032 51 297 8.0 16.0 0.00 0.00 0.02 31 1024.9
20180223192923 51 355 13.0 17.0 0.00 0.00 0.02 32 1024.9
20180223192631 51 355 13.0 17.0 0.00 0.00 0.02 32 1024.9
20180223192503 52 319 9.0 17.0 0.00 0.00 0.02 32 1024.8
20180223192232 52 319 9.0 17.0 0.00 0.00 0.02 32 1024.8
20180223192229 52 319 9.0 17.0 0.00 0.00 0.02 32 1024.8
20180223192028 51 0 17.0 17.0 0.00 0.00 0.02 32 1024.8
20180223191831 51 0 17.0 17.0 0.00 0.00 0.02 32 1024.8
20180223191828 51 0 17.0 17.0 0.00 0.00 0.02 32 1024.8
20180223191309 51 324 9.0 15.0 0.00 0.00 0.02 33 1025.0
20180223191023 51 324 9.0 15.0 0.00 0.00 0.02 33 1025.0
20180223191019 51 324 9.0 15.0 0.00 0.00 0.02 33 1025.0
20180223190916 51 315 11.0 20.0 0.00 0.00 0.02 33 1025.1
20180223190618 51 315 11.0 20.0 0.00 0.00 0.02 33 1025.1
20180223190116 51 297 7.0 17.0 0.00 0.00 0.02 33 1025.1
20180223185822 51 297 7.0 17.0 0.00 0.00 0.02 33 1025.1
20180223185815 51 297 7.0 17.0 0.00 0.00 0.02 33 1025.1
20180223185726 50 317 15.0 21.0 0.00 0.00 0.02 33 1025.1
20180223185416 50 317 15.0 21.0 0.00 0.00 0.02 33 1025.1
20180223185414 50 317 15.0 21.0 0.00 0.00 0.02 33 1025.1
20180223185013 50 357 15.0 21.0 0.00 0.00 0.02 33 1025.1
20180223184847 50 322 21.0 21.0 0.00 0.00 0.01 34 1025.1
20180223184614 50 322 21.0 21.0 0.00 0.00 0.01 34 1025.1
20180223184612 50 322 21.0 21.0 0.00 0.00 0.01 34 1025.1
20180223184503 50 328 5.0 17.0 0.00 0.00 0.00 34 1025.4
20180223184425 50 328 5.0 17.0 0.00 0.00 0.00 34 1025.4
20180223184213 50 328 5.0 17.0 0.00 0.00 0.00 34 1025.4
20180223184210 50 328 5.0 17.0 0.00 0.00 0.00 34 1025.4
20180223184119 50 303 9.0 19.0 0.00 0.00 0.00 34 1025.5
20180223184040 50 303 9.0 19.0 0.00 0.00 0.00 34 1025.5
20180223183809 50 303 9.0 19.0 0.00 0.00 0.00 34 1025.5
20180223183322 50 344 12.0 15.0 0.00 0.00 0.00 35 1025.5
20180223183006 50 344 12.0 15.0 0.00 0.00 0.00 35 1025.5
20180223182838 49 317 8.0 20.0 0.00 0.00 0.00 35 1025.5
20180223182608 49 317 8.0 20.0 0.00 0.00 0.00 35 1025.5
20180223182605 49 317 8.0 20.0 0.00 0.00 0.00 35 1025.5
20180223182433 50 326 11.0 17.0 0.00 0.00 0.00 35 1025.4
20180223182204 50 326 11.0 17.0 0.00 0.00 0.00 35 1025.4
20180223181803 49 337 17.0 19.0 0.00 0.00 0.00 35 1025.3
20180223181651 49 348 11.0 24.0 0.00 0.00 0.00 36 1025.4
20180223181404 49 348 11.0 24.0 0.00 0.00 0.00 36 1025.4
20180223181401 49 348 11.0 24.0 0.00 0.00 0.00 36 1025.4
20180223181300 49 355 24.0 24.0 0.00 0.00 0.00 36 1025.2
20180223181002 49 355 24.0 24.0 0.00 0.00 0.00 36 1025.2
20180223180959 49 355 24.0 24.0 0.00 0.00 0.00 36 1025.2
20180223180849 49 332 11.0 23.0 0.00 0.00 0.00 37 1025.8
20180223180601 49 332 11.0 23.0 0.00 0.00 0.00 37 1025.8
20180223180558 49 332 11.0 23.0 0.00 0.00 0.00 37 1025.8
20180223180503 49 15 11.0 19.0 0.00 0.00 0.00 37 1025.8
20180223180157 49 15 11.0 19.0 0.00 0.00 0.00 37 1025.8
20180223180120 49 346 8.0 19.0 0.00 0.00 0.00 37 1025.9
20180223175805 49 346 8.0 19.0 0.00 0.00 0.00 37 1025.9
20180223175756 49 346 8.0 19.0 0.00 0.00 0.00 37 1025.9
20180223175559 49 0 12.0 17.0 0.00 0.00 0.00 38 1025.8
20180223175402 49 0 12.0 17.0 0.00 0.00 0.00 38 1025.8
20180223175357 49 0 12.0 17.0 0.00 0.00 0.00 38 1025.8
20180223175355 49 0 12.0 17.0 0.00 0.00 0.00 38 1025.8
20180223175321 49 319 13.0 19.0 0.00 0.00 0.00 38 1025.8
20180223174958 49 319 13.0 19.0 0.00 0.00 0.00 38 1025.8
20180223174953 49 319 13.0 19.0 0.00 0.00 0.00 38 1025.8
20180223174551 49 324 17.0 17.0 0.00 0.00 0.01 38 1025.6
20180223174453 49 315 11.0 13.0 0.00 0.00 0.01 38 1025.7
20180223174153 49 315 11.0 13.0 0.00 0.00 0.01 38 1025.7
20180223174150 49 315 11.0 13.0 0.00 0.00 0.01 38 1025.7
20180223173749 49 4 17.0 27.0 0.00 0.00 0.01 39 1025.6
20180223173619 49 0 19.0 19.0 0.00 0.00 0.00 39 1025.7
20180223173353 49 0 19.0 19.0 0.00 0.00 0.00 39 1025.7
20180223173348 49 0 19.0 19.0 0.00 0.00 0.00 39 1025.7
20180223173258 49 0 20.0 20.0 0.00 0.00 0.00 40 1025.5
20180223172953 49 0 20.0 20.0 0.00 0.00 0.00 40 1025.5
20180223172947 49 0 20.0 20.0 0.00 0.00 0.00 40 1025.5
20180223172852 49 357 15.0 18.0 0.00 0.00 0.00 40 1025.5
20180223172551 49 357 15.0 18.0 0.00 0.00 0.00 40 1025.5
20180223172548 49 357 15.0 18.0 0.00 0.00 0.00 40 1025.5
20180223172546 49 357 15.0 18.0 0.00 0.00 0.00 40 1025.5
20180223172524 49 15 16.0 20.0 0.00 0.00 0.00 40 1025.6
20180223172143 49 15 16.0 20.0 0.00 0.00 0.00 40 1025.6
20180223171955 49 9 17.0 21.0 0.00 0.00 0.00 41 1025.4
20180223171745 49 9 17.0 21.0 0.00 0.00 0.00 41 1025.4
20180223171742 49 9 17.0 21.0 0.00 0.00 0.00 41 1025.4
20180223171241 49 6 12.0 20.0 0.00 0.00 0.00 41 1025.4
20180223170934 49 6 12.0 20.0 0.00 0.00 0.00 41 1025.4
20180223170842 48 0 14.0 20.0 0.00 0.00 0.00 41 1025.5
20180223170539 48 0 14.0 20.0 0.00 0.00 0.00 41 1025.5
20180223170533 48 0 14.0 20.0 0.00 0.00 0.00 41 1025.5
20180223165730 48 2 15.0 20.0 0.00 0.00 0.00 42 1025.3
20180223165550 47 351 13.0 23.0 0.00 0.00 0.00 42 1025.2
20180223165332 47 351 13.0 23.0 0.00 0.00 0.00 42 1025.2
20180223165328 47 351 13.0 23.0 0.00 0.00 0.00 42 1025.2
20180223165313 47 4 17.0 20.0 0.00 0.00 0.00 43 1025.1
20180223164927 47 4 17.0 20.0 0.00 0.00 0.00 43 1025.1
20180223164740 48 9 20.0 20.0 0.00 0.00 0.00 43 1024.9
20180223164529 48 9 20.0 20.0 0.00 0.00 0.00 43 1024.9
20180223164526 48 9 20.0 20.0 0.00 0.00 0.00 43 1024.9
20180223164417 48 4 13.0 21.0 0.00 0.00 0.00 43 1025.1
20180223164128 48 4 13.0 21.0 0.00 0.00 0.00 43 1025.1
20180223164125 48 4 13.0 21.0 0.00 0.00 0.00 43 1025.1
20180223163927 48 2 11.0 15.0 0.00 0.00 0.00 44 1025.1
20180223163726 48 2 11.0 15.0 0.00 0.00 0.00 44 1025.1
20180223163724 48 2 11.0 15.0 0.00 0.00 0.00 44 1025.1
20180223163551 47 351 11.0 19.0 0.00 0.00 0.00 44 1025.0
20180223163341 47 351 13.0 20.0 0.00 0.00 0.00 44 1025.1
20180223163325 47 351 11.0 19.0 0.00 0.00 0.00 44 1025.0
20180223163322 47 351 11.0 19.0 0.00 0.00 0.00 44 1025.0
20180223162923 47 351 13.0 20.0 0.00 0.00 0.00 44 1025.1
20180223162920 47 351 13.0 20.0 0.00 0.00 0.00 44 1025.1
20180223162737 47 353 9.0 20.0 0.00 0.00 0.00 45 1025.2
20180223162522 47 353 9.0 20.0 0.00 0.00 0.00 45 1025.2
20180223162519 47 353 9.0 20.0 0.00 0.00 0.00 45 1025.2
20180223162327 47 4 20.0 22.0 0.00 0.00 0.00 45 1024.9
20180223162120 47 4 20.0 22.0 0.00 0.00 0.00 45 1024.9
20180223162118 47 4 20.0 22.0 0.00 0.00 0.00 45 1024.9
20180223161947 46 13 22.0 22.0 0.00 0.00 0.00 45 1024.8
20180223161717 46 13 22.0 22.0 0.00 0.00 0.00 45 1024.8
20180223161552 46 11 8.0 14.0 0.00 0.00 0.00 45 1025.0
20180223161326 46 11 8.0 14.0 0.00 0.00 0.00 45 1025.0
20180223161316 46 11 8.0 14.0 0.00 0.00 0.00 45 1025.0
20180223161149 46 2 11.0 18.0 0.00 0.00 0.00 46 1024.9
20180223160914 46 2 11.0 18.0 0.00 0.00 0.00 46 1024.9
20180223160800 46 355 12.0 14.0 0.00 0.00 0.00 46 1024.9
20180223160513 46 355 12.0 14.0 0.00 0.00 0.00 46 1024.9
20180223160111 46 348 9.0 18.0 0.00 0.00 0.00 46 1024.8
20180223160005 45 355 13.0 20.0 0.00 0.00 0.00 47 1024.8
20180223155713 45 355 13.0 20.0 0.00 0.00 0.00 47 1024.8
20180223155710 45 355 13.0 20.0 0.00 0.00 0.00 47 1024.8
20180223155600 45 355 10.0 20.0 0.00 0.00 0.00 47 1024.9
20180223155311 45 355 10.0 20.0 0.00 0.00 0.00 47 1024.9
20180223155309 45 355 10.0 20.0 0.00 0.00 0.00 47 1024.9
20180223155146 45 342 10.0 17.0 0.00 0.00 0.00 47 1024.8
20180223154910 45 342 10.0 17.0 0.00 0.00 0.00 47 1024.8
20180223154908 45 342 10.0 17.0 0.00 0.00 0.00 47 1024.8
20180223154754 45 2 12.0 15.0 0.00 0.00 0.00 47 1024.7
20180223154512 45 2 12.0 15.0 0.00 0.00 0.00 47 1024.7
20180223154509 45 2 12.0 15.0 0.00 0.00 0.00 47 1024.7
20180223154506 45 2 12.0 15.0 0.00 0.00 0.00 47 1024.7
20180223154105 45 342 11.0 17.0 0.00 0.00 0.00 47 1024.8
20180223153704 44 353 15.0 15.0 0.00 0.00 0.00 48 1024.7
20180223153302 44 353 17.0 18.0 0.00 0.00 0.00 48 1024.6
20180223153206 44 340 7.0 15.0 0.00 0.00 0.00 48 1024.7
20180223152904 44 340 7.0 15.0 0.00 0.00 0.00 48 1024.7
20180223152901 44 340 7.0 15.0 0.00 0.00 0.00 48 1024.7
20180223152724 43 348 10.0 13.0 0.00 0.00 0.00 48 1024.7
20180223152501 43 348 10.0 13.0 0.00 0.00 0.00 48 1024.7
20180223152330 43 344 8.0 17.0 0.00 0.00 0.00 48 1024.7
20180223152058 43 344 8.0 17.0 0.00 0.00 0.00 48 1024.7
20180223151833 43 0 2.0 10.0 0.00 0.00 0.00 48 1024.6
20180223151657 43 344 16.0 16.0 0.00 0.00 0.00 48 1024.5
20180223151356 42 317 7.0 13.0 0.00 0.00 0.00 48 1024.4
20180223151259 43 0 2.0 10.0 0.00 0.00 0.00 48 1024.6
20180223151256 43 0 2.0 10.0 0.00 0.00 0.00 48 1024.6
20180223150857 42 317 7.0 13.0 0.00 0.00 0.00 48 1024.4
20180223150855 42 317 7.0 13.0 0.00 0.00 0.00 48 1024.4
20180223150453 42 0 10.0 10.0 0.00 0.00 0.00 48 1024.4
20180223150417 42 357 4.0 9.0 0.00 0.00 0.00 48 1024.4
20180223150056 42 357 4.0 9.0 0.00 0.00 0.00 48 1024.4
20180223150054 42 357 4.0 9.0 0.00 0.00 0.00 48 1024.4
20180223145948 42 315 6.0 8.0 0.00 0.00 0.00 48 1024.4
20180223145654 42 315 6.0 8.0 0.00 0.00 0.00 48 1024.4
20180223145650 42 315 6.0 8.0 0.00 0.00 0.00 48 1024.4
20180223145547 41 340 3.0 12.0 0.00 0.00 0.00 48 1024.3
20180223145256 41 340 3.0 12.0 0.00 0.00 0.00 48 1024.3
20180223145249 41 340 3.0 12.0 0.00 0.00 0.00 48 1024.3
20180223144848 41 339 7.0 11.0 0.00 0.00 0.00 48 1024.4
20180223144805 40 321 3.0 8.0 0.00 0.00 0.00 48 1024.3
20180223144449 40 321 3.0 8.0 0.00 0.00 0.00 48 1024.3
20180223144447 40 321 3.0 8.0 0.00 0.00 0.00 48 1024.3
20180223144356 39 4 3.0 4.0 0.00 0.00 0.00 48 1024.4
20180223144048 39 4 3.0 4.0 0.00 0.00 0.00 48 1024.4
20180223144045 39 4 3.0 4.0 0.00 0.00 0.00 48 1024.4
20180223143928 39 225 0.0 2.0 0.00 0.00 0.00 49 1024.2
20180223143650 39 225 0.0 2.0 0.00 0.00 0.00 49 1024.2
20180223143647 39 225 0.0 2.0 0.00 0.00 0.00 49 1024.2
20180223143645 39 225 0.0 2.0 0.00 0.00 0.00 49 1024.2
20180223143526 39 153 0.0 3.0 0.00 0.00 0.00 49 1024.2
20180223143248 39 153 0.0 3.0 0.00 0.00 0.00 49 1024.2
20180223143246 39 153 0.0 3.0 0.00 0.00 0.00 49 1024.2
20180223143242 39 153 0.0 3.0 0.00 0.00 0.00 49 1024.2
20180223142841 40 292 2.0 3.0 0.00 0.00 0.00 49 1024.2
20180223142440 40 297 2.0 5.0 0.00 0.00 0.00 49 1024.1
20180223142422 40 220 3.0 4.0 0.00 0.00 0.00 49 1024.1
20180223142051 40 335 7.0 8.0 0.00 0.00 0.00 49 1024.1
20180223142043 40 220 3.0 4.0 0.00 0.00 0.00 49 1024.1
20180223142039 40 220 3.0 4.0 0.00 0.00 0.00 49 1024.1
20180223141651 40 335 7.0 8.0 0.00 0.00 0.00 49 1024.1
20180223141647 40 335 7.0 8.0 0.00 0.00 0.00 49 1024.1
20180223141638 40 335 7.0 8.0 0.00 0.00 0.00 49 1024.1
20180223141604 40 0 4.0 9.0 0.00 0.00 0.00 49 1024.0
20180223141316 40 4 9.0 9.0 0.00 0.00 0.00 49 1024.1
20180223141236 40 0 4.0 9.0 0.00 0.00 0.00 49 1024.0
20180223140834 40 4 9.0 9.0 0.00 0.00 0.00 49 1024.1
20180223140433 40 324 4.0 8.0 0.00 0.00 0.00 49 1024.1
20180223140422 40 310 4.0 4.0 0.00 0.00 0.00 50 1024.0
20180223140035 40 310 4.0 4.0 0.00 0.00 0.00 50 1024.0
20180223140032 40 310 4.0 4.0 0.00 0.00 0.00 50 1024.0
20180223135907 40 346 5.0 10.0 0.00 0.00 0.00 50 1024.0
20180223135634 40 346 5.0 10.0 0.00 0.00 0.00 50 1024.0
20180223135631 40 346 5.0 10.0 0.00 0.00 0.00 50 1024.0